Location: De Jouwer
(52.9668°N, 5.7966°E)
Time: 07:55:19
(UTC+00:00)

Daily predictions for brighter satellites

Satellite Brightness Start Highest point End
(mag) Time Altitude Azimuth Time Altitude Azimuth Time Altitude Azimuth
SL-08 R/B 3.8 15:55:25 10° NNE 15:59:58 43° E 16:04:24 10° S
USA 308 3.1 15:57:22 10° WSW 16:01:35 67° SSE 16:05:49 10° ENE
USA 267 3.9 15:56:31 10° ENE 16:02:46 46° SE 16:08:59 10° SSW
Cosmos 1603 4.5 15:57:39 10° SW 16:03:14 51° NW 16:08:52 10° NNE
SL-16 R/B 3.9 15:59:11 10° W 16:03:40 23° NNW 16:08:09 10° NNE
Cosmos 1500 Rocket 4.3 16:00:52 10° N 16:04:56 33° ENE 16:08:56 10° SE
MOS 1 Rocket 3.5 16:00:45 10° NNE 16:05:57 89° WNW 16:10:48 10° SSW
Cosmos 2233 Rocket 4.3 16:01:04 10° SSW 16:07:14 72° WNW 16:13:30 10° N
Iridium 2 3.6 16:05:48 10° N 16:09:35 74° E 16:13:19 10° S
Meteor 1-31 Rocket 3.6 16:06:42 10° S 16:10:26 54° W 16:14:12 10° NNW
Cosmos 1937 Rocket 4.1 16:05:39 10° NNW 16:10:33 36° NE 16:15:26 10° ESE
NOAA 11 4.3 16:06:47 10° SSE 16:12:13 90° WSW 16:17:42 10° NNW
USA 229 DEB 3.9 16:05:52 10° NW 16:13:03 75° NE 16:20:46 10° SE
USA 229 3.9 16:05:58 10° NW 16:13:09 75° NE 16:20:51 10° SE
Meteor PRIRODA 3.6 16:11:04 10° SSE 16:14:40 65° ENE 16:18:17 10° N
CZ-4C R/B 3.2 16:10:51 10° NNE 16:14:51 73° ESE 16:18:36 10° S
Cosmos 1340 Rocket 3.1 16:11:13 10° N 16:15:09 44° ENE 16:19:04 10° SE
ERBS 2.5 16:12:17 10° SW 16:15:25 54° SE 16:18:28 11° ENE
Okean 3 Rocket 3.9 16:11:29 10° NNW 16:16:01 75° W 16:20:29 10° S
Cosmos 1805 Rocket 4.5 16:12:32 10° N 16:16:15 26° ENE 16:19:56 10° SE
NOAA 6 4.2 16:11:59 10° SE 16:16:56 50° ENE 16:21:54 10° N
NOSS 3-4 (A) 4.4 16:13:55 10° WNW 16:19:31 36° N 16:25:41 10° NE
Sich 1 4.1 16:16:05 10° NNE 16:19:33 23° ENE 16:23:01 10° ESE
NOSS 3-4 (C) 4.4 16:14:00 10° WNW 16:19:36 36° N 16:25:46 10° NE
Cosmos 1833 Rocket 3.9 16:15:31 10° SSE 16:19:49 23° ESE 16:24:07 10° NE
Cosmos 1943 4.3 16:15:01 10° WSW 16:20:17 40° NW 16:25:35 10° NNE
Cosmos 990 Rocket 4.0 16:15:58 10° NNW 16:21:10 65° ENE 16:26:19 10° SE
ATLAS 2AS CENTAUR R/B 3.5 16:14:39 10° W 16:22:12 50° NNW 16:29:25 10° NE
Cosmos 2219 Rocket 4.2 16:20:42 10° NNW 16:23:08 13° N 16:25:34 10° NNE
Cosmos 1842 Rocket 3.9 16:18:52 10° SSE 16:23:08 47° E 16:27:27 10° NNE
Lacrosse 5 rocket 1.7 16:19:42 10° WNW 16:23:21 45° N 16:26:55 12° ENE
NOAA 12 4.1 16:18:13 10° SSE 16:23:33 78° ENE 16:28:53 10° NNW
ARGOS 4.1 16:19:34 10° ESE 16:23:53 25° NE 16:28:12 10° N
AQUARIUS 4.4 16:22:59 10° SE 16:27:17 48° ENE 16:31:38 10° N
CZ-4B R/B 2.8 16:23:29 10° SSE 16:27:34 86° ENE 16:31:27 10° NNW
Cosmos 2221 2.6 16:23:58 10° S 16:28:09 58° E 16:32:24 10° NNE
SeaSat 1 3.5 16:23:39 10° NNE 16:28:16 40° NW 16:32:50 10° WSW
USA 305 2.9 16:25:02 10° WSW 16:29:16 87° SSE 16:33:02 13° ENE
Cosmos 1461 3.6 16:25:34 10° WSW 16:29:36 46° NW 16:33:30 10° NE
CZ-2D R/B 4.0 16:26:15 10° SE 16:29:37 30° ENE 16:33:01 10° N
Cosmos 2034 Rocket 4.1 16:25:07 10° SSE 16:31:03 52° E 16:37:00 10° NNE
Meteor 1-20 Rocket 4.4 16:25:20 10° N 16:31:04 56° ENE 16:36:49 10° SSE
Cosmos 2360 4.3 16:25:40 10° NNW 16:31:22 59° NE 16:37:02 10° SE
NOSS 2-1 (C) 3.0 16:29:39 10° SW 16:32:51 68° NW 16:35:53 13° NE
Cosmos 1606 2.6 16:29:48 10° S 16:33:33 78° E 16:37:21 10° NNE
CZ-4B R/B 3.7 16:30:15 10° SE 16:35:06 35° ENE 16:39:54 10° N
NOSS 3-1 (A) 4.1 16:29:20 10° NW 16:36:34 86° SW 16:45:09 10° SE
USA 234 3.8 16:32:23 10° SE 16:38:52 62° SW 16:45:21 10° WNW
CZ-2C R/B 3.8 16:36:38 10° NE 16:40:26 20° E 16:44:14 10° SE
deb Chang Zheng 4 4.4 16:37:04 10° ESE 16:40:47 29° ENE 16:44:31 10° N
Cosmos 1933 4.2 16:37:26 10° SSE 16:40:56 29° E 16:44:16 11° NNE
Cosmos 2084 3.7 16:37:23 10° NW 16:41:38 75° SW 16:46:04 10° SE
NOSS 2-1 (D) 3.3 16:39:03 10° WSW 16:42:14 57° NW 16:45:00 15° NE
NOSS 2-2 (D) 4.1 16:39:45 10° NW 16:44:23 62° NE 16:50:46 10° ESE
NOSS 2-2 (E) 4.1 16:40:23 10° NW 16:45:11 71° NE 16:51:55 10° SE
Cosmos 1500 3.9 16:41:57 10° N 16:45:17 29° ENE 16:48:36 10° SE
Radarsat 4.5 16:40:26 10° SSE 16:45:37 73° ENE 16:50:50 10° NNW
COSMO-SKYMED 1 3.9 16:46:52 17° ENE 16:48:13 19° E 16:51:22 10° SE
GEOS 3 Rocket 3.9 16:45:41 10° ESE 16:50:42 49° NNE 16:55:41 10° NW
PSLV R/B 3.7 16:47:50 10° SSE 16:51:26 55° ENE 16:55:07 10° N
Cosmos 2360 Rocket 3.7 16:50:00 10° NNW 16:53:46 18° NNE 16:55:36 15° NE
Cosmos 1634 Rocket 4.4 16:48:00 10° SSE 16:53:49 40° E 16:59:38 10° NNE
USA 276 4.4 16:51:31 10° W 16:54:05 23° SSW 16:56:38 10° SSE
Cosmos 1818 4.2 16:50:01 10° NW 16:55:10 38° NNE 16:58:49 18° E
CZ-2C R/B 3.8 16:52:48 10° S 16:57:35 52° W 17:02:16 10° NNW
Cosmos 2026 Rocket 3.9 16:52:47 10° N 16:58:56 61° ENE 17:04:57 10° SSE
ISS -3.4 16:56:38 10° W 17:00:01 62° S 17:02:15 19° ESE
Cosmos 1633 Rocket 3.9 16:57:13 10° N 17:01:00 28° ENE 17:04:46 10° SE
USA 306 2.8 16:57:01 10° W 17:01:17 82° N 17:03:48 24° ENE
Cosmos 2195 Rocket 4.4 16:55:45 10° N 17:01:55 73° ENE 17:08:05 10° SSE
YAOGAN 1 3.7 17:05:04 23° ENE 17:05:04 23° ENE 17:08:28 10° N
H-2A R/B 4.2 17:09:18 15° NNE 17:09:18 15° NNE 17:10:30 10° N
Cosmos 540 Rocket 4.0 17:03:29 10° S 17:08:09 37° ESE 17:10:46 22° NE
Cosmos 1898 Rocket 3.7 17:04:26 10° NNW 17:09:44 76° WSW 17:14:56 10° SSE
MOS 1-B Rocket 4.3 17:04:23 10° NNE 17:09:55 45° E 17:16:01 10° S
Okean O Rocket 1.9 17:05:43 10° SE 17:09:56 43° ENE 17:14:11 10° N
Cosmos 1939 Rocket 3.8 17:08:13 10° S 17:12:15 53° W 17:16:17 10° NNW
Cosmos 2322 Rocket 3.3 17:08:10 10° NNW 17:12:53 26° NE 17:14:20 23° ENE
Cosmos 468 Rocket 4.0 17:08:10 10° S 17:13:15 63° ESE 17:17:11 17° NNE
Cosmos 1743 Rocket 3.9 17:09:21 10° NNW 17:13:39 66° W 17:17:56 10° S
Cosmos 1666 3.2 17:11:45 10° N 17:15:12 34° ENE 17:15:45 32° E
Cosmos 1697 Rocket 3.0 17:11:53 10° NW 17:17:29 71° WSW 17:23:04 10° SSE
Cosmos 2369 3.7 17:12:12 10° NNW 17:17:59 85° ENE 17:23:44 10° SSE
Meteor 1-25 Rocket 4.4 17:12:29 10° NNW 17:18:03 77° W 17:23:38 10° S
Meteor 2-14 Rocket 4.3 17:11:57 10° N 17:18:07 76° ENE 17:24:11 10° SSE
Meteor 1-5 Rocket 4.5 17:13:03 10° N 17:18:53 50° ENE 17:24:39 10° SE
USA 307 2.9 17:14:50 10° W 17:19:08 79° N 17:20:58 33° ENE
Cosmos 1980 Rocket 2.1 17:15:14 10° NNW 17:20:57 74° ENE 17:26:36 10° SE
Cosmos 1151 Rocket 3.7 17:21:10 10° SSE 17:24:43 32° E 17:24:43 32° E
Cosmos 1666 Rocket 3.7 17:20:44 10° N 17:25:08 52° ENE 17:29:27 10° SSE
H-2A R/B 2.0 17:22:14 10° SSE 17:27:26 86° WSW 17:32:31 10° NNW
Cosmos 44 Rocket 3.6 17:24:11 10° NW 17:29:02 47° NE 17:30:37 35° E
SL-16 R/B 2.8 17:24:15 10° NNW 17:29:28 35° NE 17:30:49 31° ENE
Cosmos 1812 3.6 17:27:41 10° SSE 17:30:15 31° SE 17:30:15 31° SE
SMAP 4.4 17:26:57 10° S 17:31:22 42° W 17:35:49 10° NNW
ATLAS CENTAUR R/B 3.0 17:28:33 10° W 17:32:21 28° NNW 17:34:35 19° NNE
Cosmos 2237 Rocket 4.2 17:30:22 10° NNW 17:32:47 13° N 17:34:15 12° NNE
SL-08 RB Rocket 3.8 17:29:16 10° SE 17:33:45 51° ENE 17:38:13 10° N
Cosmos 2333 Rocket 3.7 17:31:36 10° NNW 17:35:41 19° NNE 17:35:59 19° NNE
SKYMED 2 3.7 17:35:28 39° NE 17:36:39 50° E 17:40:52 10° S
Cosmos 2082 Rocket 2.6 17:31:35 10° S 17:36:50 40° ESE 17:38:07 35° E
CZ-4C R/B 2.8 17:30:42 10° NW 17:37:36 82° NE 17:45:25 12° SE
COSMOS 2455 3.2 17:32:07 10° S 17:37:44 43° ESE 17:39:32 34° ENE
Meteor 2-21 Rocket 4.3 17:32:18 10° N 17:38:29 80° ENE 17:44:34 10° SSE
ATLAS 5 CENTAUR R/B 2.3 17:29:17 10° WNW 17:38:36 72° NNE 17:39:44 43° E
SL-24 R/B - RUBIN 2 3.7 17:34:27 10° NW 17:39:04 73° SW 17:42:23 17° SSE
USA 308 2.8 17:37:15 10° W 17:41:32 76° N 17:42:26 53° ENE
NOSS 2-2 (C) 4.4 17:36:54 10° NW 17:41:48 71° SW 17:48:39 10° SE
NOSS 2-1 (E) 4.5 17:39:30 10° W 17:42:25 28° NNW 17:43:14 25° N
Cosmos 2278 3.6 17:37:07 10° NNW 17:42:53 78° ENE 17:48:32 10° SE
Cosmos 1782 2.6 17:40:00 10° S 17:44:00 82° E 17:45:34 36° NNE
ATLAS CENTAUR R/B 2.5 17:36:20 10° SW 17:44:40 60° SSE 17:45:46 46° E
USA 267 3.2 17:42:43 31° ENE 17:46:10 85° NNW 17:52:43 10° WSW
CZ-4 R/B 4.3 17:45:26 10° SSE 17:49:33 90° ENE 17:53:44 10° NNW
Cosmos 1763 Rocket 3.6 17:44:45 10° SW 17:49:48 70° WNW 17:53:03 23° NNE
SL-16 R/B 4.3 17:47:31 10° NNW 17:50:03 13° N 17:52:04 11° NNE
Landsat 5 4.2 17:52:10 37° SSE 17:52:10 37° SSE 17:54:57 10° S
COSMOS 2406 3.1 17:45:38 10° SSW 17:51:22 75° ESE 17:53:56 34° NE
ERBS 3.0 17:48:16 10° W 17:51:03 44° NW 17:51:03 44° NW
Cosmos 1125 Rocket 3.8 17:47:37 10° NNW 17:52:37 44° NE 17:52:37 44° NE
Cosmos 1937 Rocket 4.5 17:47:35 10° NW 17:52:42 48° WSW 17:57:48 10° S
Cosmos 841 Rocket 3.4 17:49:10 10° SSW 17:54:17 66° ESE 17:55:39 47° NE
SL-19 R/B 4.4 17:52:07 16° NNE 17:57:00 75° ESE 18:03:29 10° SSW
Sich 1 4.0 17:53:20 10° NNW 17:57:28 47° W 18:01:35 10° SSW
CZ-4 R/B 3.0 17:59:58 24° N 17:59:58 24° N 18:01:40 10° N
Meteor 2-6 Rocket 4.3 17:55:17 10° S 18:00:52 52° E 18:01:30 50° ENE
Lacrosse 5 rocket 1.2 17:58:52 10° WNW 18:02:31 74° NNW 18:02:31 74° NNW
Cosmos 1833 Rocket 2.7 17:57:32 10° SW 18:03:10 77° WNW 18:05:51 32° NNE
ARGOS 3.4 17:58:18 10° S 18:03:42 72° WSW 18:09:08 10° NNW
USA 305 2.9 18:05:01 10° W 18:09:01 76° NW 18:09:01 76° NW
Cosmos 2219 Rocket 3.7 18:05:03 10° NNW 18:08:18 21° NNE 18:08:18 21° NNE
Meteor 1-11 Rocket 3.7 18:06:20 10° N 18:11:38 58° ENE 18:11:38 58° ENE
NOSS 3-4 (A) 4.3 18:06:01 10° NW 18:11:59 38° NNE 18:13:08 36° NE
NOSS 3-4 (C) 4.3 18:06:07 10° NW 18:12:05 38° NNE 18:13:13 36° NE
Cosmos 2142 Rocket 4.4 18:06:37 10° S 18:12:46 90° SE 18:19:04 10° N
ATLAS 2AS CENTAUR R/B 3.7 18:07:46 10° WNW 18:14:47 37° N 18:16:55 31° NNE
CZ-4B R/B 4.1 18:10:19 10° S 18:15:34 48° W 18:20:44 10° NNW
CZ-2C R/B 2.7 18:18:09 24° N 18:21:19 73° WNW 18:26:28 10° SSW
Spot 2 4.5 18:17:29 13° SSE 18:22:06 83° WSW 18:27:16 10° NNW
Cosmos 2279 Rocket 4.0 18:18:21 10° SSW 18:24:35 81° W 18:30:50 10° N
COSMO-SKYMED 1 3.0 18:24:05 52° NNW 18:24:46 60° WNW 18:29:03 10° SSW
Cosmos 2266 Rocket 3.9 18:19:02 10° N 18:25:26 82° E 18:31:51 10° SSE
GEOS 3 Rocket 4.2 18:26:15 29° S 18:28:44 53° SW 18:33:50 10° NW
Cosmos 2298 Rocket 3.9 18:27:17 10° NNW 18:32:28 84° NNW 18:32:28 84° NNW
ISS -1.2 18:33:38 10° W 18:35:15 20° WSW 18:35:15 20° WSW
Cosmos 1570 Rocket 4.5 18:31:39 10° SSW 18:35:30 50° S 18:35:30 50° S
Cosmos 1633 Rocket 4.3 18:34:50 10° NNW 18:38:54 40° W 18:42:59 10° SSW
Cosmos 1818 3.7 18:33:40 10° NW 18:39:08 70° SW 18:39:29 67° SSW
Cosmos 2360 Rocket 3.1 18:33:43 10° NNW 18:37:22 35° N 18:37:22 35° N
YAOGAN 1 3.8 18:42:13 38° NW 18:42:13 38° NW 18:45:08 10° NNW
USA 306 4.1 18:37:01 10° WNW 18:39:47 40° WNW 18:39:47 40° WNW
COSMOS 2428 4.4 18:36:47 10° NNW 18:39:23 21° N 18:39:23 21° N
IRS-1C Rocket 4.4 18:46:32 60° NNW 18:46:32 60° NNW 18:50:55 10° NNW
Okean O Rocket 3.6 18:42:37 10° SSW 18:46:27 28° W 18:50:18 10° NW
Cosmos 1814 Rocket 4.4 18:42:18 10° SSW 18:46:26 56° SW 18:46:26 56° SW
Cosmos 540 Rocket 4.5 18:44:52 10° SW 18:49:42 42° NW 18:50:37 38° NNW
Cosmos 1655 Rocket 4.3 18:45:22 10° NNW 18:51:44 67° W 18:58:02 10° S
Cosmos 2322 Rocket 2.8 18:52:01 10° NNW 18:56:10 50° NNW 18:56:10 50° NNW
Cosmos 1980 Rocket 4.3 18:59:58 10° NW 19:04:25 24° WSW 19:08:48 10° SSW
ATLAS CENTAUR R/B 4.1 19:09:16 10° NW 19:10:41 16° NNW 19:10:41 16° NNW
SL-16 R/B 3.0 19:08:19 10° NW 19:12:42 49° WNW 19:12:42 49° WNW
Cosmos 2237 Rocket 4.4 19:14:49 10° NNW 19:16:05 15° N 19:16:05 15° N
Cosmos 2082 Rocket 3.2 19:15:23 10° SW 19:20:00 44° WNW 19:20:00 44° WNW
Cosmos 2333 Rocket 3.9 19:15:40 10° NNW 19:18:00 24° NNW 19:18:00 24° NNW
COSMOS 2455 3.6 19:17:43 10° WSW 19:22:43 49° WNW 19:22:43 49° WNW
CZ-4C R/B 4.2 19:19:28 10° WNW 19:25:58 36° WSW 19:30:43 20° S
USA 267 3.7 19:30:04 56° NW 19:30:04 56° NW 19:35:29 10° W
Cosmos 2219 Rocket 4.5 19:48:44 10° NNW 19:50:01 17° NNW 19:50:01 17° NNW
ATLAS 2AS CENTAUR R/B 4.1 20:00:00 10° NW 20:04:20 34° NNW 20:04:20 34° NNW
